COSMOS 1163

Satellite information

Favourite Embed

Satellite Type and Status

PAYLOADIN ORBIT

Key statistics

Satellite COSMOS 1163 at a glance.

Uptime

16701

Days in orbit

Revolutions

≈ 12.4

Per day

Orbit

LEO

Low Earth Orbit

Inclination

74.0

Latest

Satellite identification and parameters

Extended collection of information and parameters for COSMOS 1163.

Object identification

Identified? True

Debris? False

Object name: COSMOS 1163

International designator: 1980-012H

Object number (NORAD): 11698

Object ID (CCSDS): 11698

Country: COMMONWEALTH OF INDEPENDENT STATES (CIS)

Current information (Y/N): Y

RCS size: MEDIUM

Orbital parameters

Period: 116.134 minutes

Inclination: 74.0207 deg

SMA: 7884.971 km

Apoapsis: 1542.107 km

Periapsis: 1471.564 km

RAAN: 317.2039 deg

Eccentricy: 0.00447321

Argument of periapsis: 118.0521 deg

Mean anomaly: 37.2718 deg

Mean motion: 12.39945647 rev/day

Mean motion (dot): 0.00000011 rev/day2

B* drag term: 0.00019579692 1/REarth

Two-line elements (TLE)

Creation date: Nov. 1, 2025, 7:40 p.m.

Reference frame: TEME

Reference center: EARTH

Epoch: Nov. 1, 2025, 12:17 p.m. UTC

TLE line 0: 0 COSMOS 1163

TLE line 1: 1 11698U 80012H 25305.51249346 .00000011 00000-0 19580-3 0 9993

TLE line 2: 2 11698 74.0207 317.2039 0044732 118.0521 37.2718 12.39945647 69171

Live tracking on map

Real-time ground track for satellite COSMOS 1163.

In-orbit conjunctions

A list of the most updated potential collisions computed for object COSMOS 1163.

Target Orbit TCA Probability of collision Miss distance Type
COSMOS 2491 DEB LEO 2025-06-12 17:49:26 0.0001056 161.0 (m) DEBRIS

Associated space launch

Military communications satellites

COSMOS 1163 was lifted into orbit during the mission ‘Kosmos-3M | Strela-1M 185-192’, on board a Kosmos-3M space rocket.

The launch took place on Feb. 11, 1980, 11:32 p.m. from 132/2.

For more information about the launch, click the button.

Launch to space Kosmos-3M | Strela-1M 185-192
Kosmos-3M | Strela-1M 185-192

Agency: N/A

Status: Launch Successful

Launch date: Feb. 11, 1980, 11:32 p.m. UTC

Rocket: Kosmos-3M

Launch pad: 132/2

Location: Plesetsk Cosmodrome, Russian Federation

...

Latest news about this satellite

There are no fresh news available about this satellite. Check back as we update our databases every day.


Newsletter sign-up

Weekly statistics, charts and insights to help you stay on top of the space industry.